VIV236 MMMY-MMGL

Flight info

Callsign VIV236
Flight time 1h 4m
Altitude 34000
Route KERGA1A KERGA UT44 MEZCA MEZCA1B
Aircraft A320/M-SDE3FGHIRWY/LB1

Departure

Time 2026-04-22 03:25
Airport Monterrey International Airport (MMMY)

Arrival

Time 2026-04-22 04:29
Airport Guadalajara International Airport (MMGL)
Time Latitude Longitude Altitude Speed Heading
2026-04-22 02:49 25.78058 -100.11856 1283 ft 0 kts 211°
2026-04-22 03:12 25.78078 -100.11841 1281 ft 4 kts 223°
2026-04-22 03:12 25.78094 -100.11819 1281 ft 4 kts 252°
2026-04-22 03:13 25.78095 -100.11795 1282 ft 2 kts 302°
2026-04-22 03:13 25.78092 -100.11790 1281 ft 0 kts 302°
2026-04-22 03:19 25.78092 -100.11791 1283 ft 0 kts 302°
2026-04-22 03:20 25.78105 -100.11812 1281 ft 7 kts 302°
2026-04-22 03:20 25.78143 -100.11866 1281 ft 12 kts 326°
2026-04-22 03:20 25.78217 -100.11844 1281 ft 6 kts 30°
2026-04-22 03:20 25.78274 -100.11805 1282 ft 13 kts 31°
2026-04-22 03:21 25.78305 -100.11785 1282 ft 0 kts 31°
2026-04-22 03:22 25.78329 -100.11768 1282 ft 8 kts 31°
2026-04-22 03:23 25.78397 -100.11712 1283 ft 15 kts 65°
2026-04-22 03:23 25.78390 -100.11670 1281 ft 0 kts 120°
2026-04-22 03:24 25.78383 -100.11658 1281 ft 11 kts 120°
2026-04-22 03:24 25.78250 -100.11414 1281 ft 71 kts 122°
2026-04-22 03:24 25.77886 -100.10759 1280 ft 126 kts 121°
2026-04-22 03:25 25.77340 -100.09765 1301 ft 167 kts 119°
2026-04-22 03:25 25.76798 -100.08695 2015 ft 146 kts 120°
2026-04-22 03:25 25.76275 -100.07728 2548 ft 143 kts 122°
2026-04-22 03:25 25.75752 -100.06796 2864 ft 147 kts 122°
2026-04-22 03:26 25.75183 -100.05787 3010 ft 163 kts 121°
2026-04-22 03:26 25.74408 -100.04741 3074 ft 191 kts 147°
2026-04-22 03:26 25.73051 -100.04346 3258 ft 216 kts 174°
2026-04-22 03:26 25.71458 -100.04251 3500 ft 243 kts 175°
2026-04-22 03:27 25.69693 -100.04170 3947 ft 262 kts 175°
2026-04-22 03:27 25.67853 -100.04093 4728 ft 266 kts 175°
2026-04-22 03:27 25.65986 -100.04017 5553 ft 270 kts 176°
2026-04-22 03:27 25.64114 -100.04324 6348 ft 278 kts 196°
2026-04-22 03:28 25.62294 -100.05067 7173 ft 280 kts 198°
2026-04-22 03:28 25.60462 -100.05841 7990 ft 282 kts 199°
2026-04-22 03:28 25.58629 -100.06623 8778 ft 283 kts 199°
2026-04-22 03:28 25.56790 -100.07408 9521 ft 285 kts 200°
2026-04-22 03:29 25.54935 -100.08199 10202 ft 288 kts 201°
2026-04-22 03:29 25.53004 -100.09021 10424 ft 309 kts 201°
2026-04-22 03:29 25.50954 -100.09894 10556 ft 329 kts 202°
2026-04-22 03:29 25.48783 -100.10816 10957 ft 339 kts 202°
2026-04-22 03:30 25.46568 -100.11752 11525 ft 343 kts 203°
2026-04-22 03:30 25.44331 -100.12694 12098 ft 346 kts 204°
2026-04-22 03:30 25.42067 -100.13648 12705 ft 349 kts 204°
2026-04-22 03:30 25.39786 -100.14612 13277 ft 353 kts 204°
2026-04-22 03:31 25.37486 -100.15587 13865 ft 355 kts 204°
2026-04-22 03:31 25.35172 -100.16565 14444 ft 358 kts 204°
2026-04-22 03:31 25.32837 -100.17550 15002 ft 361 kts 204°
2026-04-22 03:31 25.30480 -100.18546 15542 ft 364 kts 204°
2026-04-22 03:32 25.28102 -100.19552 16093 ft 367 kts 205°
2026-04-22 03:32 25.25706 -100.20562 16574 ft 370 kts 205°
2026-04-22 03:32 25.23292 -100.21582 17187 ft 372 kts 205°
2026-04-22 03:32 25.20868 -100.22600 17777 ft 374 kts 205°
2026-04-22 03:33 25.18427 -100.23624 18249 ft 377 kts 205°
2026-04-22 03:33 25.15974 -100.24652 18799 ft 379 kts 205°
2026-04-22 03:33 25.13502 -100.25692 19353 ft 381 kts 204°
2026-04-22 03:33 25.11012 -100.26741 19883 ft 385 kts 205°
2026-04-22 03:34 25.08499 -100.27798 20375 ft 388 kts 205°
2026-04-22 03:34 25.06000 -100.28848 20910 ft 391 kts 205°
2026-04-22 03:34 25.03419 -100.29931 21430 ft 394 kts 205°
2026-04-22 03:34 25.00881 -100.30994 21923 ft 397 kts 206°
2026-04-22 03:35 24.98288 -100.32079 22360 ft 400 kts 206°
2026-04-22 03:35 24.95679 -100.33170 22778 ft 402 kts 206°
2026-04-22 03:35 24.93056 -100.34269 23230 ft 405 kts 206°
2026-04-22 03:35 24.90417 -100.35374 23667 ft 407 kts 206°
2026-04-22 03:36 24.87759 -100.36487 24082 ft 410 kts 206°
2026-04-22 03:36 24.85088 -100.37609 24480 ft 412 kts 206°
2026-04-22 03:36 24.83268 -100.38371 24750 ft 413 kts 206°
2026-04-22 03:36 24.79697 -100.39861 25257 ft 416 kts 206°
2026-04-22 03:37 24.77898 -100.40610 25515 ft 417 kts 206°
2026-04-22 03:37 24.75178 -100.41743 25881 ft 419 kts 206°
2026-04-22 03:37 24.72443 -100.42885 26252 ft 421 kts 206°
2026-04-22 03:37 24.69694 -100.44031 26606 ft 423 kts 206°
2026-04-22 03:38 24.66934 -100.45180 26949 ft 425 kts 206°
2026-04-22 03:38 24.64165 -100.46335 27290 ft 427 kts 206°
2026-04-22 03:38 24.61385 -100.47497 27629 ft 429 kts 206°
2026-04-22 03:38 24.58592 -100.48660 27962 ft 430 kts 206°
2026-04-22 03:39 24.55783 -100.49831 28287 ft 432 kts 206°
2026-04-22 03:39 24.52965 -100.51006 28629 ft 434 kts 206°
2026-04-22 03:39 24.50136 -100.52182 28963 ft 435 kts 206°
2026-04-22 03:39 24.47297 -100.53361 29268 ft 437 kts 206°
2026-04-22 03:40 24.44450 -100.54544 29595 ft 438 kts 207°
2026-04-22 03:40 24.41607 -100.55725 30035 ft 436 kts 207°
2026-04-22 03:40 24.38771 -100.56901 30465 ft 435 kts 207°
2026-04-22 03:40 24.35940 -100.58072 30888 ft 434 kts 207°
2026-04-22 03:41 24.33121 -100.59238 31325 ft 432 kts 207°
2026-04-22 03:41 24.30311 -100.60400 31766 ft 431 kts 207°
2026-04-22 03:41 24.27511 -100.61559 32184 ft 429 kts 207°
2026-04-22 03:41 24.24764 -100.62698 32607 ft 427 kts 207°
2026-04-22 03:42 24.21954 -100.63863 33050 ft 426 kts 207°
2026-04-22 03:42 24.19188 -100.65012 33472 ft 424 kts 207°
2026-04-22 03:42 24.16438 -100.66155 33884 ft 422 kts 207°
2026-04-22 03:42 24.13724 -100.67278 34122 ft 422 kts 207°
2026-04-22 03:43 24.08179 -100.69571 34173 ft 428 kts 207°
2026-04-22 03:43 24.02605 -100.71866 34183 ft 428 kts 207°
2026-04-22 03:44 23.97028 -100.74165 34183 ft 429 kts 206°
2026-04-22 03:44 23.91439 -100.76468 34184 ft 429 kts 206°
2026-04-22 03:45 23.85862 -100.78760 34183 ft 429 kts 206°
2026-04-22 03:45 23.80279 -100.81054 34181 ft 429 kts 206°
2026-04-22 03:46 23.74695 -100.83348 34180 ft 429 kts 206°
2026-04-22 03:46 23.69293 -100.85564 34190 ft 429 kts 206°
2026-04-22 03:47 23.64015 -100.87725 34215 ft 430 kts 206°
2026-04-22 03:47 23.58457 -100.90004 34216 ft 430 kts 206°
2026-04-22 03:48 23.52858 -100.92310 34228 ft 429 kts 208°
2026-04-22 03:48 23.47844 -100.95613 34234 ft 419 kts 221°
2026-04-22 03:49 23.43147 -100.99354 34235 ft 419 kts 221°
2026-04-22 03:49 23.38430 -101.03086 34249 ft 419 kts 221°
2026-04-22 03:50 23.33715 -101.06824 34269 ft 420 kts 221°
2026-04-22 03:50 23.28993 -101.10567 34279 ft 420 kts 221°
2026-04-22 03:51 23.24300 -101.14277 34286 ft 420 kts 221°
2026-04-22 03:51 23.19571 -101.18012 34291 ft 420 kts 220°
2026-04-22 03:52 23.14853 -101.21744 34297 ft 419 kts 220°
2026-04-22 03:52 23.10109 -101.25493 34292 ft 419 kts 221°
2026-04-22 03:53 23.05421 -101.29190 34301 ft 419 kts 220°
2026-04-22 03:53 23.00702 -101.32913 34296 ft 419 kts 220°
2026-04-22 03:54 22.95979 -101.36631 34296 ft 419 kts 220°
2026-04-22 03:54 22.91258 -101.40344 34295 ft 419 kts 220°
2026-04-22 03:55 22.86532 -101.44053 34308 ft 420 kts 220°
2026-04-22 03:55 22.81786 -101.47768 34311 ft 420 kts 220°
2026-04-22 03:56 22.77058 -101.51475 34317 ft 420 kts 220°
2026-04-22 03:56 22.72325 -101.55190 34317 ft 420 kts 220°
2026-04-22 03:57 22.67621 -101.58881 34316 ft 420 kts 220°
2026-04-22 03:57 22.62882 -101.62596 34319 ft 420 kts 220°
2026-04-22 03:58 22.58137 -101.66298 34321 ft 421 kts 220°
2026-04-22 03:58 22.53381 -101.70005 34325 ft 421 kts 220°
2026-04-22 03:59 22.48635 -101.73712 34327 ft 421 kts 220°
2026-04-22 03:59 22.43889 -101.77414 34327 ft 421 kts 219°
2026-04-22 04:00 22.39143 -101.81112 34324 ft 421 kts 219°
2026-04-22 04:00 22.34388 -101.84805 34325 ft 420 kts 219°
2026-04-22 04:01 22.29645 -101.88492 34327 ft 420 kts 219°
2026-04-22 04:01 22.24934 -101.92150 34324 ft 419 kts 219°
2026-04-22 04:02 22.20188 -101.95837 34324 ft 420 kts 219°
2026-04-22 04:02 22.15443 -101.99526 34322 ft 421 kts 219°
2026-04-22 04:03 22.10693 -102.03207 34327 ft 421 kts 219°
2026-04-22 04:03 22.05932 -102.06890 34331 ft 421 kts 219°
2026-04-22 04:04 22.01170 -102.10574 34336 ft 421 kts 219°
2026-04-22 04:04 21.96436 -102.14227 34342 ft 421 kts 219°
2026-04-22 04:05 21.91592 -102.17790 34346 ft 422 kts 217°
2026-04-22 04:05 21.86641 -102.21183 34346 ft 422 kts 216°
2026-04-22 04:06 21.84159 -102.22870 34233 ft 422 kts 216°
2026-04-22 04:06 21.81678 -102.24567 33980 ft 422 kts 216°
2026-04-22 04:06 21.79206 -102.26273 33731 ft 423 kts 217°
2026-04-22 04:06 21.76728 -102.27995 33392 ft 424 kts 217°
2026-04-22 04:07 21.74265 -102.29712 32905 ft 420 kts 217°
2026-04-22 04:07 21.71829 -102.31411 32403 ft 416 kts 218°
2026-04-22 04:07 21.69525 -102.33249 31875 ft 410 kts 222°
2026-04-22 04:07 21.67290 -102.35139 31337 ft 407 kts 223°
2026-04-22 04:08 21.65069 -102.37016 30811 ft 405 kts 223°
2026-04-22 04:08 21.62861 -102.38882 30282 ft 403 kts 223°
2026-04-22 04:08 21.60663 -102.40738 29764 ft 401 kts 223°
2026-04-22 04:08 21.58478 -102.42585 29236 ft 399 kts 223°
2026-04-22 04:09 21.56300 -102.44424 28727 ft 397 kts 223°
2026-04-22 04:09 21.54136 -102.46247 28211 ft 395 kts 223°
2026-04-22 04:09 21.51975 -102.48062 27714 ft 394 kts 221°
2026-04-22 04:09 21.49820 -102.49870 27240 ft 392 kts 222°
2026-04-22 04:10 21.47672 -102.51668 26754 ft 390 kts 222°
2026-04-22 04:10 21.45557 -102.53442 26278 ft 391 kts 222°
2026-04-22 04:10 21.43427 -102.55234 25817 ft 387 kts 221°
2026-04-22 04:10 21.41313 -102.57014 25356 ft 385 kts 221°
2026-04-22 04:11 21.39207 -102.58788 24917 ft 384 kts 221°
2026-04-22 04:11 21.37111 -102.60554 24485 ft 382 kts 221°
2026-04-22 04:11 21.35030 -102.62304 24292 ft 380 kts 221°
2026-04-22 04:11 21.32946 -102.64051 23863 ft 379 kts 221°
2026-04-22 04:12 21.30872 -102.65785 23393 ft 375 kts 220°
2026-04-22 04:12 21.28826 -102.67497 22632 ft 372 kts 220°
2026-04-22 04:12 21.26783 -102.69210 22127 ft 373 kts 220°
2026-04-22 04:12 21.24741 -102.70923 21622 ft 373 kts 220°
2026-04-22 04:13 21.22702 -102.72631 21124 ft 371 kts 220°
2026-04-22 04:13 21.20672 -102.74330 20626 ft 370 kts 220°
2026-04-22 04:13 21.18649 -102.76024 20135 ft 368 kts 219°
2026-04-22 04:13 21.16635 -102.77708 19635 ft 367 kts 219°
2026-04-22 04:14 21.14597 -102.79354 19127 ft 367 kts 213°
2026-04-22 04:14 21.12309 -102.80553 18624 ft 367 kts 200°
2026-04-22 04:14 21.09814 -102.81136 18054 ft 369 kts 186°
2026-04-22 04:14 21.07230 -102.81061 17342 ft 375 kts 172°
2026-04-22 04:15 21.04661 -102.80663 16842 ft 371 kts 173°
2026-04-22 04:15 21.02117 -102.80286 16338 ft 368 kts 173°
2026-04-22 04:15 20.99589 -102.80020 15970 ft 361 kts 182°
2026-04-22 04:15 20.97153 -102.80433 15733 ft 351 kts 199°
2026-04-22 04:16 20.94839 -102.81265 15485 ft 350 kts 200°
2026-04-22 04:16 20.90348 -102.82926 14996 ft 348 kts 200°
2026-04-22 04:16 20.88067 -102.83777 14741 ft 347 kts 200°
2026-04-22 04:17 20.85794 -102.84629 14488 ft 346 kts 200°
2026-04-22 04:17 20.83529 -102.85478 14239 ft 344 kts 200°
2026-04-22 04:17 20.81272 -102.86324 13986 ft 344 kts 201°
2026-04-22 04:17 20.79016 -102.87166 13738 ft 343 kts 200°
2026-04-22 04:18 20.76767 -102.88000 13485 ft 342 kts 200°
2026-04-22 04:18 20.74528 -102.88831 13235 ft 341 kts 200°
2026-04-22 04:18 20.72318 -102.89651 12988 ft 340 kts 200°
2026-04-22 04:18 20.70090 -102.90479 12737 ft 338 kts 200°
2026-04-22 04:19 20.67867 -102.91304 12484 ft 337 kts 200°
2026-04-22 04:19 20.65654 -102.92124 12232 ft 336 kts 201°
2026-04-22 04:19 20.63444 -102.92943 11975 ft 335 kts 201°
2026-04-22 04:19 20.61244 -102.93761 11725 ft 334 kts 201°
2026-04-22 04:20 20.59051 -102.94578 11490 ft 333 kts 200°
2026-04-22 04:20 20.56883 -102.95384 11229 ft 326 kts 200°
2026-04-22 04:20 20.54764 -102.96169 10971 ft 319 kts 200°
2026-04-22 04:20 20.52718 -102.96926 10665 ft 304 kts 200°
2026-04-22 04:21 20.50751 -102.97655 10291 ft 293 kts 200°
2026-04-22 04:21 20.48894 -102.98342 10213 ft 272 kts 200°
2026-04-22 04:21 20.47165 -102.98981 10099 ft 254 kts 200°
2026-04-22 04:21 20.45552 -102.99578 9994 ft 238 kts 200°
2026-04-22 04:22 20.44029 -103.00147 9843 ft 228 kts 202°
2026-04-22 04:22 20.42673 -103.01017 9391 ft 229 kts 224°
2026-04-22 04:22 20.41730 -103.02355 9047 ft 225 kts 245°
2026-04-22 04:22 20.41326 -103.03925 8872 ft 214 kts 266°
2026-04-22 04:23 20.41443 -103.05444 8792 ft 200 kts 285°
2026-04-22 04:23 20.41933 -103.06777 8707 ft 185 kts 294°
2026-04-22 04:23 20.42430 -103.07954 8587 ft 169 kts 294°
2026-04-22 04:23 20.42904 -103.09078 8448 ft 164 kts 294°
2026-04-22 04:24 20.43371 -103.10183 8311 ft 163 kts 293°
2026-04-22 04:24 20.43833 -103.11279 8173 ft 161 kts 293°
2026-04-22 04:24 20.44137 -103.12000 8150 ft 161 kts 293°
2026-04-22 04:24 20.44745 -103.13442 7967 ft 161 kts 293°
2026-04-22 04:25 20.45202 -103.14525 7773 ft 160 kts 294°
2026-04-22 04:25 20.45658 -103.15607 7591 ft 159 kts 293°
2026-04-22 04:25 20.46110 -103.16681 7392 ft 158 kts 293°
2026-04-22 04:25 20.46561 -103.17752 7198 ft 158 kts 293°
2026-04-22 04:26 20.47010 -103.18816 7001 ft 157 kts 293°
2026-04-22 04:26 20.47312 -103.19533 6876 ft 157 kts 293°
2026-04-22 04:26 20.47759 -103.20595 6676 ft 157 kts 293°
2026-04-22 04:26 20.48205 -103.21656 6472 ft 157 kts 293°
2026-04-22 04:27 20.48652 -103.22717 6288 ft 157 kts 293°
2026-04-22 04:27 20.49096 -103.23772 6096 ft 155 kts 293°
2026-04-22 04:27 20.49537 -103.24819 5903 ft 154 kts 293°
2026-04-22 04:27 20.49978 -103.25861 5712 ft 154 kts 294°
2026-04-22 04:28 20.50448 -103.26887 5500 ft 154 kts 295°
2026-04-22 04:28 20.50864 -103.27919 5304 ft 153 kts 291°
2026-04-22 04:28 20.51294 -103.28972 5166 ft 153 kts 293°
2026-04-22 04:28 20.51714 -103.30011 5059 ft 147 kts 292°
2026-04-22 04:29 20.52057 -103.30818 5030 ft 82 kts 294°
2026-04-22 04:29 20.52207 -103.31176 5030 ft 45 kts 294°
2026-04-22 04:29 20.52358 -103.31468 5031 ft 45 kts 313°
2026-04-22 04:29 20.52537 -103.31590 5029 ft 29 kts 357°
2026-04-22 04:30 20.52693 -103.31527 5026 ft 15 kts 25°
2026-04-22 04:30 20.52759 -103.31441 5029 ft 17 kts 98°
2026-04-22 04:30 20.52710 -103.31321 5029 ft 20 kts 114°
2026-04-22 04:30 20.52645 -103.31168 5029 ft 25 kts 114°
2026-04-22 04:31 20.52566 -103.30982 5029 ft 30 kts 114°
2026-04-22 04:31 20.52488 -103.30783 5029 ft 24 kts 91°
2026-04-22 04:31 20.52539 -103.30605 5029 ft 18 kts 71°
2026-04-22 04:31 20.52497 -103.30547 5029 ft 9 kts 178°
2026-04-22 04:32 20.52436 -103.30496 5029 ft 15 kts 115°
2026-04-22 04:32 20.52458 -103.30403 5029 ft 17 kts 15°
2026-04-22 04:32 20.52522 -103.30385 5029 ft 0 kts 15°